Time,TemperatureF,DewpointF,PressureIn,WindDirection,WindDirectionDegrees,WindSpeedMPH,WindSpeedGustMPH,Humidity,HourlyPrecipIn,Conditions,Clouds,dailyrainin,SoftwareType,DateUTC
2013-03-23 00:12:00,43.9,39.0,29.98,SE,140,0.0,-999.0,82,-99.99,,,0.01,weatherlink.com 1.10,2013-03-23 04:12:00,
2013-03-23 00:28:00,43.0,39.0,29.97,SE,137,0.0,-999.0,87,-99.99,,,0.07,weatherlink.com 1.10,2013-03-23 04:28:00,
2013-03-23 00:42:00,42.2,40.0,29.95,SE,144,4.0,-999.0,90,-99.99,,,0.08,weatherlink.com 1.10,2013-03-23 04:42:00,
2013-03-23 00:57:00,42.4,40.0,29.96,East,89,2.0,-999.0,90,-99.99,,,0.08,weatherlink.com 1.10,2013-03-23 04:57:00,
2013-03-23 01:12:00,42.3,40.0,29.95,ESE,112,1.0,-999.0,91,-99.99,,,0.08,weatherlink.com 1.10,2013-03-23 05:12:00,
2013-03-23 01:28:00,42.4,40.0,29.95,SE,128,0.0,-999.0,91,-99.99,,,0.08,weatherlink.com 1.10,2013-03-23 05:28:00,
2013-03-23 01:43:00,42.5,40.0,29.94,SSE,154,0.0,-999.0,91,-99.99,,,0.09,weatherlink.com 1.10,2013-03-23 05:43:00,
2013-03-23 01:58:00,42.5,40.0,29.93,SE,134,4.0,-999.0,92,-99.99,,,0.09,weatherlink.com 1.10,2013-03-23 05:58:00,
2013-03-23 02:13:00,42.6,41.0,29.93,ESE,118,4.0,-999.0,92,-99.99,,,0.11,weatherlink.com 1.10,2013-03-23 06:13:00,
2013-03-23 02:28:00,42.6,41.0,29.92,SE,146,2.0,-999.0,92,-99.99,,,0.12,weatherlink.com 1.10,2013-03-23 06:28:00,
2013-03-23 02:43:00,42.7,41.0,29.92,SE,127,2.0,-999.0,92,-99.99,,,0.12,weatherlink.com 1.10,2013-03-23 06:43:00,
2013-03-23 02:58:00,42.8,41.0,29.92,SSE,159,0.0,-999.0,92,-99.99,,,0.12,weatherlink.com 1.10,2013-03-23 06:58:00,
2013-03-23 03:13:00,43.0,41.0,29.91,SE,124,0.0,-999.0,92,-99.99,,,0.12,weatherlink.com 1.10,2013-03-23 07:13:00,
2013-03-23 03:28:00,43.2,41.0,29.92,East,96,0.0,-999.0,92,-99.99,,,0.12,weatherlink.com 1.10,2013-03-23 07:28:00,
2013-03-23 03:43:00,43.5,41.0,29.91,SE,140,0.0,-999.0,92,-99.99,,,0.12,weatherlink.com 1.10,2013-03-23 07:43:00,
2013-03-23 03:58:00,43.4,41.0,29.90,ESE,122,0.0,-999.0,92,-99.99,,,0.12,weatherlink.com 1.10,2013-03-23 07:58:00,
2013-03-23 04:13:00,43.5,41.0,29.90,ESE,121,0.0,-999.0,91,-99.99,,,0.13,weatherlink.com 1.10,2013-03-23 08:13:00,
2013-03-23 04:28:00,43.6,42.0,29.89,SSE,154,0.0,-999.0,92,-99.99,,,0.13,weatherlink.com 1.10,2013-03-23 08:28:00,
2013-03-23 04:42:00,43.7,42.0,29.88,SE,134,0.0,-999.0,92,-99.99,,,0.13,weatherlink.com 1.10,2013-03-23 08:42:00,
2013-03-23 04:57:00,43.8,41.0,29.88,ESE,120,4.0,-999.0,91,-99.99,,,0.13,weatherlink.com 1.10,2013-03-23 08:57:00,
2013-03-23 05:13:00,43.9,42.0,29.89,SE,127,0.0,-999.0,91,-99.99,,,0.14,weatherlink.com 1.10,2013-03-23 09:13:00,
2013-03-23 05:27:00,44.0,42.0,29.89,SE,138,6.0,-999.0,91,-99.99,,,0.14,weatherlink.com 1.10,2013-03-23 09:27:00,
2013-03-23 05:42:00,44.1,42.0,29.89,SSE,155,4.0,-999.0,92,-99.99,,,0.16,weatherlink.com 1.10,2013-03-23 09:42:00,
2013-03-23 05:58:00,44.0,42.0,29.89,East,97,0.0,-999.0,92,-99.99,,,0.20,weatherlink.com 1.10,2013-03-23 09:58:00,
2013-03-23 06:13:00,43.9,42.0,29.90,SSE,159,5.0,-999.0,92,-99.99,,,0.22,weatherlink.com 1.10,2013-03-23 10:13:00,
2013-03-23 06:28:00,44.0,42.0,29.93,East,99,1.0,-999.0,92,-99.99,,,0.24,weatherlink.com 1.10,2013-03-23 10:28:00,
2013-03-23 06:43:00,43.8,42.0,29.90,ESE,117,7.0,-999.0,92,-99.99,,,0.27,weatherlink.com 1.10,2013-03-23 10:43:00,
2013-03-23 06:58:00,43.8,41.0,29.91,ESE,119,4.0,-999.0,91,-99.99,,,0.29,weatherlink.com 1.10,2013-03-23 10:58:00,
2013-03-23 07:13:00,43.8,41.0,29.90,SSE,167,0.0,-999.0,91,-99.99,,,0.30,weatherlink.com 1.10,2013-03-23 11:13:00,
2013-03-23 07:28:00,43.7,41.0,29.90,SE,126,4.0,-999.0,91,-99.99,,,0.32,weatherlink.com 1.10,2013-03-23 11:28:00,
2013-03-23 07:43:00,43.7,41.0,29.93,ESE,116,0.0,-999.0,91,-99.99,,,0.34,weatherlink.com 1.10,2013-03-23 11:43:00,
2013-03-23 08:13:00,43.6,41.0,29.93,SE,142,4.0,-999.0,91,-99.99,,,0.42,weatherlink.com 1.10,2013-03-23 12:13:00,
2013-03-23 08:28:00,43.5,41.0,29.91,SSE,154,2.0,-999.0,91,-99.99,,,0.45,weatherlink.com 1.10,2013-03-23 12:28:00,
2013-03-23 08:43:00,43.4,41.0,29.91,South,183,4.0,-999.0,91,-99.99,,,0.45,weatherlink.com 1.10,2013-03-23 12:43:00,
2013-03-23 08:58:00,43.5,41.0,29.91,SE,143,4.0,-999.0,91,-99.99,,,0.45,weatherlink.com 1.10,2013-03-23 12:58:00,
2013-03-23 09:13:00,43.6,41.0,29.92,ESE,117,0.0,-999.0,91,-99.99,,,0.45,weatherlink.com 1.10,2013-03-23 13:13:00,
2013-03-23 09:28:00,43.8,41.0,29.93,SE,127,0.0,-999.0,91,-99.99,,,0.45,weatherlink.com 1.10,2013-03-23 13:28:00,
2013-03-23 09:43:00,44.0,42.0,29.93,ESE,119,12.0,-999.0,91,-99.99,,,0.45,weatherlink.com 1.10,2013-03-23 13:43:00,
2013-03-23 09:58:00,44.1,42.0,29.93,SE,136,2.0,-999.0,91,-99.99,,,0.45,weatherlink.com 1.10,2013-03-23 13:58:00,
2013-03-23 10:13:00,44.3,42.0,29.92,SE,137,0.0,-999.0,92,-99.99,,,0.45,weatherlink.com 1.10,2013-03-23 14:13:00,
2013-03-23 10:28:00,44.6,42.0,29.92,SSE,148,0.0,-999.0,91,-99.99,,,0.45,weatherlink.com 1.10,2013-03-23 14:28:00,
2013-03-23 10:43:00,44.9,43.0,29.92,SE,136,0.0,-999.0,91,-99.99,,,0.45,weatherlink.com 1.10,2013-03-23 14:43:00,
2013-03-23 10:58:00,45.2,43.0,29.93,SE,135,0.0,-999.0,91,-99.99,,,0.45,weatherlink.com 1.10,2013-03-23 14:58:00,
2013-03-23 11:13:00,45.3,43.0,29.92,ESE,117,0.0,-999.0,91,-99.99,,,0.45,weatherlink.com 1.10,2013-03-23 15:13:00,
2013-03-23 11:28:00,45.8,43.0,29.92,SE,132,0.0,-999.0,91,-99.99,,,0.45,weatherlink.com 1.10,2013-03-23 15:28:00,
2013-03-23 11:43:00,46.0,44.0,29.92,ESE,111,5.0,-999.0,92,-99.99,,,0.45,weatherlink.com 1.10,2013-03-23 15:43:00,
2013-03-23 11:58:00,46.4,44.0,29.92,ESE,107,0.0,-999.0,92,-99.99,,,0.45,weatherlink.com 1.10,2013-03-23 15:58:00,
2013-03-23 12:13:00,47.0,45.0,29.91,ESE,105,0.0,-999.0,92,-99.99,,,0.45,weatherlink.com 1.10,2013-03-23 16:13:00,
2013-03-23 12:28:00,47.6,45.0,29.91,East,98,0.0,-999.0,92,-99.99,,,0.45,weatherlink.com 1.10,2013-03-23 16:28:00,
2013-03-23 12:43:00,47.9,46.0,29.90,East,100,0.0,-999.0,92,-99.99,,,0.45,weatherlink.com 1.10,2013-03-23 16:43:00,
2013-03-23 12:58:00,48.4,46.0,29.90,ESE,115,7.0,-999.0,92,-99.99,,,0.45,weatherlink.com 1.10,2013-03-23 16:58:00,
2013-03-23 13:13:00,48.7,47.0,29.89,ESE,115,0.0,-999.0,92,-99.99,,,0.45,weatherlink.com 1.10,2013-03-23 17:13:00,
2013-03-23 13:28:00,48.7,47.0,29.89,SE,134,5.0,-999.0,92,-99.99,,,0.45,weatherlink.com 1.10,2013-03-23 17:28:00,
2013-03-23 13:43:00,48.7,47.0,29.89,ESE,103,7.0,-999.0,92,-99.99,,,0.45,weatherlink.com 1.10,2013-03-23 17:43:00,
2013-03-23 13:58:00,49.2,47.0,29.89,SE,128,1.0,-999.0,92,-99.99,,,0.45,weatherlink.com 1.10,2013-03-23 17:58:00,
2013-03-23 14:13:00,49.4,47.0,29.88,ESE,109,0.0,-999.0,92,-99.99,,,0.45,weatherlink.com 1.10,2013-03-23 18:13:00,
2013-03-23 14:28:00,49.9,48.0,29.89,SSE,154,2.0,-999.0,92,-99.99,,,0.45,weatherlink.com 1.10,2013-03-23 18:28:00,
2013-03-23 14:43:00,50.3,48.0,29.89,ESE,113,0.0,-999.0,92,-99.99,,,0.45,weatherlink.com 1.10,2013-03-23 18:43:00,
2013-03-23 14:58:00,50.6,48.0,29.87,ESE,123,5.0,-999.0,92,-99.99,,,0.45,weatherlink.com 1.10,2013-03-23 18:58:00,
2013-03-23 15:13:00,51.4,49.0,29.86,ESE,103,0.0,-999.0,91,-99.99,,,0.45,weatherlink.com 1.10,2013-03-23 19:13:00,
2013-03-23 15:28:00,51.8,49.0,29.84,ESE,115,0.0,-999.0,91,-99.99,,,0.45,weatherlink.com 1.10,2013-03-23 19:28:00,
2013-03-23 15:43:00,52.2,49.0,29.83,ESE,104,7.0,-999.0,90,-99.99,,,0.45,weatherlink.com 1.10,2013-03-23 19:43:00,
2013-03-23 15:58:00,52.3,50.0,29.83,East,82,4.0,-999.0,90,-99.99,,,0.45,weatherlink.com 1.10,2013-03-23 19:58:00,
2013-03-23 16:13:00,52.3,50.0,29.83,East,86,3.0,-999.0,90,-99.99,,,0.45,weatherlink.com 1.10,2013-03-23 20:13:00,
2013-03-23 16:28:00,52.1,49.0,29.84,ENE,63,3.0,-999.0,90,-99.99,,,0.45,weatherlink.com 1.10,2013-03-23 20:28:00,
2013-03-23 16:43:00,51.9,49.0,29.85,East,86,0.0,-999.0,91,-99.99,,,0.45,weatherlink.com 1.10,2013-03-23 20:43:00,
2013-03-23 16:59:00,52.0,50.0,29.83,ESE,113,4.0,-999.0,91,-99.99,,,0.45,weatherlink.com 1.10,2013-03-23 20:59:00,
2013-03-23 17:13:00,51.9,49.0,29.82,East,92,0.0,-999.0,91,-99.99,,,0.45,weatherlink.com 1.10,2013-03-23 21:13:00,
2013-03-23 17:28:00,51.8,49.0,29.84,ENE,61,3.0,-999.0,91,-99.99,,,0.45,weatherlink.com 1.10,2013-03-23 21:28:00,
2013-03-23 17:43:00,51.4,49.0,29.83,East,80,0.0,-999.0,92,-99.99,,,0.45,weatherlink.com 1.10,2013-03-23 21:43:00,
2013-03-23 17:59:00,50.8,49.0,29.82,NE,53,4.0,-999.0,92,-99.99,,,0.45,weatherlink.com 1.10,2013-03-23 21:59:00,
2013-03-23 18:14:00,50.1,48.0,29.81,SE,132,0.0,-999.0,92,-99.99,,,0.45,weatherlink.com 1.10,2013-03-23 22:14:00,
2013-03-23 18:29:00,50.3,48.0,29.80,East,100,0.0,-999.0,92,-99.99,,,0.45,weatherlink.com 1.10,2013-03-23 22:29:00,
2013-03-23 18:44:00,50.6,48.0,29.79,SE,127,0.0,-999.0,92,-99.99,,,0.00,weatherlink.com 1.10,2013-03-23 22:44:00,
2013-03-23 18:59:00,50.3,48.0,29.77,East,91,5.0,-999.0,92,-99.99,,,0.00,weatherlink.com 1.10,2013-03-23 22:59:00,
2013-03-23 19:14:00,49.9,48.0,29.76,ESE,104,12.0,-999.0,92,-99.99,,,0.00,weatherlink.com 1.10,2013-03-23 23:14:00,
2013-03-23 19:29:00,49.8,48.0,29.79,SSW,194,5.0,-999.0,92,-99.99,,,0.00,weatherlink.com 1.10,2013-03-23 23:29:00,
2013-03-23 19:44:00,49.9,48.0,29.79,SE,138,0.0,-999.0,92,-99.99,,,0.00,weatherlink.com 1.10,2013-03-23 23:44:00,
2013-03-23 19:59:00,50.0,48.0,29.78,ESE,119,0.0,-999.0,92,-99.99,,,0.00,weatherlink.com 1.10,2013-03-23 23:59:00,
2013-03-23 20:14:00,50.1,48.0,29.78,East,96,0.0,-999.0,92,-99.99,,,0.00,weatherlink.com 1.10,2013-03-24 00:14:00,
2013-03-23 20:29:00,50.3,48.0,29.77,ESE,120,8.0,-999.0,92,-99.99,,,0.00,weatherlink.com 1.10,2013-03-24 00:29:00,
2013-03-23 20:44:00,50.3,48.0,29.75,ESE,109,0.0,-999.0,92,-99.99,,,0.00,weatherlink.com 1.10,2013-03-24 00:44:00,
2013-03-23 20:59:00,50.3,48.0,29.74,SE,141,5.0,-999.0,92,-99.99,,,0.00,weatherlink.com 1.10,2013-03-24 00:59:00,
2013-03-23 21:14:00,50.6,48.0,29.74,SSE,149,6.0,-999.0,92,-99.99,,,0.00,weatherlink.com 1.10,2013-03-24 01:14:00,
2013-03-23 21:29:00,50.7,48.0,29.73,SE,137,4.0,-999.0,91,-99.99,,,0.00,weatherlink.com 1.10,2013-03-24 01:29:00,
2013-03-23 21:44:00,50.6,48.0,29.72,SE,130,7.0,-999.0,91,-99.99,,,0.00,weatherlink.com 1.10,2013-03-24 01:44:00,
2013-03-23 21:59:00,50.5,48.0,29.69,ENE,75,3.0,-999.0,92,-99.99,,,0.00,weatherlink.com 1.10,2013-03-24 01:59:00,
2013-03-23 22:14:00,50.1,48.0,29.68,SE,128,4.0,-999.0,92,-99.99,,,0.00,weatherlink.com 1.10,2013-03-24 02:14:00,
2013-03-23 22:29:00,50.4,48.0,29.68,SE,138,14.0,-999.0,92,-99.99,,,0.00,weatherlink.com 1.10,2013-03-24 02:29:00,
2013-03-23 22:44:00,50.6,48.0,29.70,SE,136,7.0,-999.0,92,-99.99,,,0.00,weatherlink.com 1.10,2013-03-24 02:44:00,
2013-03-23 22:59:00,51.1,49.0,29.73,East,97,4.0,-999.0,92,-99.99,,,0.00,weatherlink.com 1.10,2013-03-24 02:59:00,
2013-03-23 23:14:00,50.9,49.0,29.79,NNW,348,13.0,-999.0,92,-99.99,,,0.02,weatherlink.com 1.10,2013-03-24 03:14:00,
2013-03-23 23:29:00,50.4,48.0,29.80,NE,34,7.0,-999.0,92,-99.99,,,0.08,weatherlink.com 1.10,2013-03-24 03:29:00,
2013-03-23 23:44:00,50.0,48.0,29.76,ENE,69,7.0,-999.0,92,-99.99,,,0.08,weatherlink.com 1.10,2013-03-24 03:44:00,